Home   Weather   Hohhot   Past weeks

Flag for China Past Weather in Hohhot, Inner Mongolia, China — Yesterday and Last 2 Weeks

Now
-4 °F

Clear.


Feels Like: -12 °F
Forecast: -2 / 17 °F
Wind: 3 mph from East

Location: Hohhot Airport

Current Time: Jan 20, 2017 at 9:57:53 am

Latest Report: Jan 20, 2017 at 9:00 am


Visibility: 5 mi

Pressure: 30.42 "Hg (26.39 "Hg at 1053m altitude)

Humidity: 65%

Dew Point: -13 °F

Location of HohhotLocation

Past Weather in Hohhot — Graph

°F

Hohhot Temperature Yesterday

Maximum temperature yesterday: 18 °F (at 12:00 am)
Minimum temperature yesterday: 1 °F (at 7:00 am)
Average temperature yesterday: 7 °F

High & Low Weather Summary for the Past Weeks

 TemperatureHumidityPressure
High43 °F (Jan 5, 3:00 pm)93% (Jan 6, 7:00 am)30.51 "Hg (Jan 6, 7:00 am)
Low-9 °F (Jan 20, 6:00 am)23% (Jan 14, 2:00 pm)30.04 "Hg (Jan 12, 2:00 pm)
Average14 °F63%30.22 "Hg
* Reported Jan 5 8:00 am — Jan 20 8:00 am, Hohhot, Weather by CustomWeather, © 2017

Note: Actual official high and low records may vary slightly from our data, if they occured in-between our weather recording intervals... More about our weather records

Advertising

Hohhot Weather History for the Previous 24 Hours

Scroll right to see more
 ConditionsComfort  
Time TempWeatherWind HumidityBarometerVisibility
8:00 am
Fri, Jan 20
-9 °FClear.1 mph70%30.42 "Hg5 mi
7:00 am-9 °FClear.3 mph64%30.42 "Hg10 mi
6:00 am-9 °FClear.6 mph70%30.42 "Hg10 mi
5:00 am-8 °FClear.3 mph64%30.42 "Hg10 mi
4:00 am-6 °FClear.No wind70%30.42 "Hg10 mi
3:00 am-4 °FClear.No wind65%30.45 "Hg10 mi
2:00 am-6 °FClear.1 mph64%30.45 "Hg10 mi
1:00 am0 °FPassing clouds.3 mph54%30.45 "HgN/A
12:00 am1 °FClear.6 mph55%30.48 "Hg10 mi
11:00 pm
Thu, Jan 19
1 °FClear.6 mph50%30.48 "Hg10 mi
10:00 pm3 °FClear.1 mph50%30.48 "Hg10 mi
9:00 pm7 °FClear.10 mph47%30.48 "Hg10 mi
8:00 pm5 °FClear.8 mph51%30.48 "Hg10 mi
7:00 pm7 °FClear.10 mph47%30.45 "Hg10 mi
6:00 pm9 °FClear.13 mph39%30.45 "Hg10 mi
5:00 pm9 °FPassing clouds.10 mph39%30.45 "HgN/A
4:00 pm10 °FPassing clouds.10 mph33%30.45 "HgN/A
3:00 pm10 °FPassing clouds.13 mph33%30.45 "HgN/A
2:00 pm9 °FPassing clouds.13 mph36%30.45 "HgN/A
1:00 pm9 °FPassing clouds.15 mph39%30.45 "HgN/A
12:00 pm7 °FPassing clouds.13 mph39%30.48 "HgN/A
11:00 am3 °FPassing clouds.13 mph42%30.51 "HgN/A
10:00 am1 °FSunny.15 mph46%30.48 "Hg10 mi
9:00 am1 °FPassing clouds.13 mph50%30.45 "HgN/A
Weather by CustomWeather, © 2017

See weather overviewHow to use our weather pages